Regional Weather Roundup
Issued by NWS

Home | Current Version | Previous Version | Graphics & Text | Print | Product List | Glossary On
Versions: 1 2 3 4 5 6 7 8 9 10 11 12 13 14 15 16 17 18 19 20 21 22 23 24 25 26 27 28 29 30 31 32 33 34 35 36 37 38 39 40 41 42 43 44 45 46 47 48 49 50
000
ASUS44 KMEG 180200
RWRTN
TENNESSEE HOURLY STATE WEATHER ROUNDUP
NATIONAL WEATHER SERVICE MEMPHIS TN
900 PM CDT WED SEP 17 2014

TNZ002-004-019-021-049-052-054-088>092-180300-
WEST TENNESSEE

CITY           SKY/WX    TMP DP  RH WIND       PRES   REMARKS
MEMPHIS INTL   CLOUDY    72  64  76 E8        29.93R
NWS MEMPHIS      N/A     68 N/A N/A MISG        N/A
JACKSON        MOCLDY    63  60  90 CALM      29.97R
DYERSBURG      MOCLDY    63  52  67 CALM      29.98R
UNION CITY     CLEAR     57  55  94 CALM      29.96S
PARIS          CLEAR     57  55  94 CALM      29.98R
LEXINGTON      PTCLDY    61  59  94 CALM      29.96R
SAVANNAH       MOCLDY    63  59  88 CALM      29.96R
$$

TNZ008-025-027-028-033-062-065-066-180300-
NORTH MIDDLE TENNESSEE

CITY           SKY/WX    TMP DP  RH WIND       PRES   REMARKS
NASHVILLE      CLOUDY    65  58  78 CALM      29.98R
CLARKSVILLE    PTCLDY    62  56  80 CALM      29.97F
COOKEVILLE     CLEAR     61  59  94 NW3       29.98R
CROSSVILLE     PTCLDY    62  54  74 E5        29.98F
$$

TNZ061-075-076-078-094-096-097-180300-
SOUTH MIDDLE TENNESSEE

CITY           SKY/WX    TMP DP  RH WIND       PRES   REMARKS
FAYETTEVILLE   CLEAR     64  55  72 CALM      29.98S
TULLAHOMA      CLEAR     63  57  82 CALM      30.00S
WINCHESTER     CLEAR     64  57  77 CALM      29.99R
COLUMBIA       CLEAR     64  63  94 CALM      29.95F
SHELBYVILLE    CLEAR     64  59  82 CALM      29.99S
$$

TNZ017-018-042-046-047-180300-
NORTHEAST TENNESSEE

CITY           SKY/WX    TMP DP  RH WIND       PRES   REMARKS
TRI CITIES     PTCLDY    60  53  77 CALM      29.99R
ELIZABETHTON   CLEAR     57  54  88 CALM      30.01R
$$

TNZ012-013-036-069-073-074-180300-
CENTRAL EAST TENNESSEE

CITY           SKY/WX    TMP DP  RH WIND       PRES   REMARKS
KNOXVILLE      PTCLDY    65  57  75 CALM      29.97R
OAK RIDGE      CLEAR     63  58  83 CALM      29.99S
GATLINBURG     CLEAR     61  57  88 CALM      29.98R
$$

TNZ083-085-099-180300-
SOUTHEAST TENNESSEE

CITY           SKY/WX    TMP DP  RH WIND       PRES   REMARKS
CHATTANOOGA    MOCLDY    67  57  70 NW5       29.95F
$$

SKY/WX REPORTED AS FAIR MEANS FEW OR NO CLOUDS BELOW
12 THOUSAND FEET.




USA.gov is the U.S. government's official web portal to all federal, state and local government web resources and services.